"Pseudo-MPEC" for C8KL042

Created 2022 Dec 26 1:22:09 UT using Find_Orb

Click here for an explanation of pseudo-MPECs

 
 Astrometry: 
     C8KL042*1C2022 12 01.37743305 59 30.397+05 03 06.44   ~C19q 21.43GVNEOCPG96
     C8KL042 1C2022 12 01.38264805 59 30.653+05 02 10.32   ~C19q 20.91GVNEOCPG96
     C8KL042 1C2022 12 01.38786405 59 30.934+05 01 15.06   ~C19q 21.01GVNEOCPG96
     C8KL042 1C2022 12 01.39307605 59 31.193+05 00 19.51   ~C19q 21.14GVNEOCPG96
     C8KL042 KC2022 12 01.47138805 59 35.440+04 46 23.50   ~C1Bq 21.35GVNEOCPI52
     C8KL042 KC2022 12 01.47332605 59 35.550+04 46 02.70   ~C1Bq 21.23GVNEOCPI52
     C8KL042 1C2022 12 02.36323106 00 50.550+02 09 05.40   ~C29b 21.15GVNEOCPG96
     C8KL042 1C2022 12 02.36572006 00 50.660+02 08 38.70   ~C29b 21.81GVNEOCPG96
     C8KL042 1C2022 12 02.37070406 00 50.920+02 07 46.90   ~C29b 20.70GVNEOCPG96

Station data:
(G96) Mt. Lemmon Survey  (N32.442751 W110.788720)  US/Arizona.  Observers T.
   A. Pruyne, B. M. Africano, E. J. Christensen, G. A. Farneth, D. C. Fuls,
   A. R. Gibbs, A. D. Grauer, H. Gröller, J. A. Johnson, R. A. Kowalski, S.
   M. Larson, G. J. Leonard, D. Rankin, R. L. Seaman, F. C. Shelly, K. W.
   Wierzchoś. 1.5-m reflector + 10K CCD.
(I52) Steward Observatory, Mt. Lemmon Station  (N32.442544 W110.788920)
   US/Arizona.  Observers T. A. Pruyne, B. M. Africano, E. J. Christensen, G.
   A. Farneth, D. C. Fuls, A. R. Gibbs, A. D. Grauer, H. Gröller, J. A.
   Johnson, R. A. Kowalski, S. M. Larson, G. J. Leonard, D. Rankin, R. L.
   Seaman, F. C. Shelly, K. W. Wierzchoś. 1.0-m reflector + CCD.

Orbital elements:  C8KL042
   Perihelion 2022 Dec 16.64043 +/- 0.812 TT = 15:22:13 (JD 2459930.14043)
Epoch 2022 Dec  2.0 TT = JDT 2459915.5   Earth MOID: 0.0915   Ma: 0.0878
M 350.93504700 +/- 0.54             (J2000 ecliptic)             AutoNEOCP
n   0.61917248 +/- 0.0046           Peri.  201.06322 +/- 0.8
a   1.36331103 +/- 0.00676          Node   244.76446 +/- 0.022
e   0.2172432 +/- 0.00315           Incl.   15.77523 +/- 0.14
P   1.59/581.41d           H 25.19  G  0.15   U  9.1
q 1.06714087 +/- 0.00101    Q 1.65948119 +/- 0.0125
From 9 observations 2022 Dec. 1-2 (23.8 hr); mean residual 0".16
Residuals in arcseconds: 
221201 G96  .07+  .15+    221201 G96  .05-  .13+    221202 G96  .06-  .17+    
221201 G96  .10-  .33-    221201 I52  .01+  .05+    221202 G96  .16-  .37-    
221201 G96  .09+  .06+    221201 I52  .02-  .06-    221202 G96  .23+  .20+    

Ephemerides (geocentric):
Date (UTC) HH   RA             Dec           delta  r     elong  mag " sig PA
---- --------  ------------   ------------  ------ ------ -----  --- --------
2022 12 26 01  06 17 07.463   -39 16 26.89  .16528 1.0696 117.3 23.5 85.5 168
2022 12 26 02  06 17 08.283   -39 18 15.87  .16544 1.0696 117.3 23.5 85.7 168
2022 12 26 03  06 17 09.101   -39 20 04.51  .16561 1.0697 117.3 23.5 85.8 168
2022 12 26 04  06 17 09.919   -39 21 52.81  .16577 1.0697 117.3 23.5 86.0 168
2022 12 26 05  06 17 10.737   -39 23 40.76  .16593 1.0697 117.2 23.5 86.1 168
2022 12 26 06  06 17 11.553   -39 25 28.37  .16609 1.0697 117.2 23.5 86.2 168
2022 12 26 07  06 17 12.370   -39 27 15.64  .16625 1.0697 117.2 23.5 86.4 168
2022 12 26 08  06 17 13.185   -39 29 02.57  .16641 1.0698 117.1 23.5 86.5 168
2022 12 26 09  06 17 14.000   -39 30 49.16  .16657 1.0698 117.1 23.5 86.7 168
2022 12 26 10  06 17 14.814   -39 32 35.41  .16673 1.0698 117.1 23.5 86.8 168
2022 12 26 11  06 17 15.628   -39 34 21.33  .16689 1.0698 117.1 23.5 86.9 168
2022 12 26 12  06 17 16.441   -39 36 06.90  .16705 1.0699 117.0 23.5 87.1 168
2022 12 26 13  06 17 17.254   -39 37 52.14  .16721 1.0699 117.0 23.5 87.2 168
2022 12 26 14  06 17 18.066   -39 39 37.05  .16737 1.0699 117.0 23.5 87.4 168
2022 12 26 15  06 17 18.877   -39 41 21.62  .16753 1.0699 116.9 23.5 87.5 168
2022 12 26 16  06 17 19.689   -39 43 05.86  .16769 1.0699 116.9 23.5 87.6 168
2022 12 26 17  06 17 20.499   -39 44 49.76  .16785 1.0700 116.9 23.5 87.8 168
2022 12 26 18  06 17 21.309   -39 46 33.33  .16801 1.0700 116.9 23.5 87.9 168
2022 12 26 19  06 17 22.119   -39 48 16.58  .16817 1.0700 116.8 23.5 88.1 168
2022 12 26 20  06 17 22.928   -39 49 59.49  .16833 1.0700 116.8 23.5 88.2 168
2022 12 26 21  06 17 23.737   -39 51 42.08  .16850 1.0701 116.8 23.5 88.3 168
2022 12 26 22  06 17 24.545   -39 53 24.33  .16866 1.0701 116.8 23.5 88.5 168
2022 12 26 23  06 17 25.353   -39 55 06.26  .16882 1.0701 116.7 23.5 88.6 168
2022 12 27 00  06 17 26.160   -39 56 47.86  .16898 1.0701 116.7 23.5 88.7 168
2022 12 27 01  06 17 26.967   -39 58 29.14  .16914 1.0702 116.7 23.5 88.9 168
2022 12 27 02  06 17 27.773   -40 00 10.09  .16930 1.0702 116.6 23.5 89.0 168
2022 12 27 03  06 17 28.579   -40 01 50.72  .16946 1.0702 116.6 23.5 89.2 168
2022 12 27 04  06 17 29.385   -40 03 31.03  .16962 1.0702 116.6 23.5 89.3 168
2022 12 27 05  06 17 30.191   -40 05 11.01  .16978 1.0703 116.6 23.5 89.4 168
2022 12 27 06  06 17 30.996   -40 06 50.68  .16994 1.0703 116.5 23.6 89.6 168
2022 12 27 07  06 17 31.800   -40 08 30.02  .17010 1.0703 116.5 23.6 89.7 168
2022 12 27 08  06 17 32.605   -40 10 09.04  .17027 1.0703 116.5 23.6 89.8 168
2022 12 27 09  06 17 33.409   -40 11 47.75  .17043 1.0704 116.5 23.6 90.0 168
2022 12 27 10  06 17 34.212   -40 13 26.14  .17059 1.0704 116.4 23.6 90.1 168
2022 12 27 11  06 17 35.016   -40 15 04.21  .17075 1.0704 116.4 23.6 90.2 168
2022 12 27 12  06 17 35.819   -40 16 41.96  .17091 1.0704 116.4 23.6 90.4 168
2022 12 27 13  06 17 36.621   -40 18 19.40  .17107 1.0705 116.4 23.6 90.5 168
2022 12 27 14  06 17 37.424   -40 19 56.53  .17123 1.0705 116.3 23.6 90.6 168
2022 12 27 15  06 17 38.226   -40 21 33.34  .17139 1.0705 116.3 23.6 90.8 168
2022 12 27 16  06 17 39.028   -40 23 09.84  .17156 1.0705 116.3 23.6 90.9 168
2022 12 27 17  06 17 39.830   -40 24 46.03  .17172 1.0706 116.2 23.6 91.1 168
2022 12 27 18  06 17 40.631   -40 26 21.90  .17188 1.0706 116.2 23.6 91.2 168
2022 12 27 19  06 17 41.432   -40 27 57.47  .17204 1.0706 116.2 23.6 91.3 168
2022 12 27 20  06 17 42.233   -40 29 32.73  .17220 1.0706 116.2 23.6 91.5 168
2022 12 27 21  06 17 43.034   -40 31 07.68  .17236 1.0707 116.1 23.6 91.6 168
2022 12 27 22  06 17 43.835   -40 32 42.32  .17252 1.0707 116.1 23.6 91.7 168
2022 12 27 23  06 17 44.635   -40 34 16.65  .17268 1.0707 116.1 23.6 91.9 168
2022 12 28 00  06 17 45.435   -40 35 50.68  .17285 1.0707 116.1 23.6 92.0 168